Time,TemperatureF,DewpointF,PressureIn,WindDirection,WindDirectionDegrees,WindSpeedMPH,WindSpeedGustMPH,Humidity,HourlyPrecipIn,Conditions,Clouds,dailyrainin,SoftwareType,DateUTC
2013-04-09 00:05:00,40.3,-99.9,-100.00,WSW,240,13.0,-999.0,-999,0.00,,,-99.99,Home Grown,2013-04-08 23:05:00,
2013-04-09 00:10:00,40.3,-99.9,-100.00,WSW,240,13.0,-999.0,-999,0.00,,,-99.99,Home Grown,2013-04-08 23:10:00,
2013-04-09 00:15:00,40.1,-99.9,-100.00,WSW,240,13.0,-999.0,-999,0.00,,,-99.99,Home Grown,2013-04-08 23:15:00,
2013-04-09 00:25:00,39.9,-99.9,-100.00,WSW,240,13.0,-999.0,-999,0.00,,,-99.99,Home Grown,2013-04-08 23:25:00,
2013-04-09 00:30:00,39.9,-99.9,-100.00,WSW,240,13.0,-999.0,-999,0.00,,,-99.99,Home Grown,2013-04-08 23:30:00,
2013-04-09 00:35:00,39.9,-99.9,-100.00,WSW,240,15.0,-999.0,-999,0.00,,,-99.99,Home Grown,2013-04-08 23:35:00,
2013-04-09 00:40:00,39.9,-99.9,-100.00,WSW,240,14.0,-999.0,-999,0.00,,,-99.99,Home Grown,2013-04-08 23:40:00,
2013-04-09 00:45:00,39.7,-99.9,-100.00,WSW,240,13.0,-999.0,-999,0.00,,,-99.99,Home Grown,2013-04-08 23:45:00,
2013-04-09 00:50:00,39.7,-99.9,-100.00,WSW,240,13.0,-999.0,-999,0.00,,,-99.99,Home Grown,2013-04-08 23:50:00,
2013-04-09 00:55:00,39.6,-99.9,-100.00,WSW,240,13.0,-999.0,-999,0.00,,,-99.99,Home Grown,2013-04-08 23:55:00,
2013-04-09 01:00:00,39.6,-99.9,-100.00,WSW,240,12.0,-999.0,-999,0.00,,,-99.99,Home Grown,2013-04-09 00:00:00,
2013-04-09 01:05:00,39.6,-99.9,-100.00,WSW,240,13.0,-999.0,-999,0.00,,,-99.99,Home Grown,2013-04-09 00:05:00,
2013-04-09 01:10:00,39.4,-99.9,-100.00,WSW,240,13.0,-999.0,-999,0.00,,,-99.99,Home Grown,2013-04-09 00:10:00,
2013-04-09 01:15:00,39.4,-99.9,-100.00,WSW,240,11.0,-999.0,-999,0.00,,,-99.99,Home Grown,2013-04-09 00:15:00,
2013-04-09 01:20:00,39.4,-99.9,-100.00,WSW,240,10.0,-999.0,-999,0.00,,,-99.99,Home Grown,2013-04-09 00:20:00,
2013-04-09 01:25:00,39.2,-99.9,-100.00,WSW,240,11.0,-999.0,-999,0.00,,,-99.99,Home Grown,2013-04-09 00:25:00,
2013-04-09 01:30:00,39.2,-99.9,-100.00,WSW,240,11.0,-999.0,-999,0.00,,,-99.99,Home Grown,2013-04-09 00:30:00,
2013-04-09 01:35:00,39.0,-99.9,-100.00,WSW,240,12.0,-999.0,-999,0.00,,,-99.99,Home Grown,2013-04-09 00:35:00,
2013-04-09 01:40:00,39.0,-99.9,-100.00,WSW,240,13.0,-999.0,-999,0.00,,,-99.99,Home Grown,2013-04-09 00:40:00,
2013-04-09 01:45:00,39.0,-99.9,-100.00,WSW,240,13.0,-999.0,-999,0.00,,,-99.99,Home Grown,2013-04-09 00:45:00,
2013-04-09 01:50:00,38.8,-99.9,-100.00,WSW,240,11.0,-999.0,-999,0.00,,,-99.99,Home Grown,2013-04-09 00:50:00,
2013-04-09 01:55:00,38.8,-99.9,-100.00,WSW,240,11.0,-999.0,-999,0.00,,,-99.99,Home Grown,2013-04-09 00:55:00,
2013-04-09 02:00:00,38.8,-99.9,-100.00,WSW,240,11.0,-999.0,-999,0.00,,,-99.99,Home Grown,2013-04-09 01:00:00,
2013-04-09 02:05:00,38.5,-99.9,-100.00,WSW,240,13.0,-999.0,-999,0.00,,,-99.99,Home Grown,2013-04-09 01:05:00,
2013-04-09 02:10:00,38.5,-99.9,-100.00,WSW,240,11.0,-999.0,-999,0.00,,,-99.99,Home Grown,2013-04-09 01:10:00,
2013-04-09 02:15:00,38.5,-99.9,-100.00,WSW,240,13.0,-999.0,-999,0.00,,,-99.99,Home Grown,2013-04-09 01:15:00,
2013-04-09 02:20:00,38.3,-99.9,-100.00,WSW,240,12.0,-999.0,-999,0.00,,,-99.99,Home Grown,2013-04-09 01:20:00,
2013-04-09 02:25:00,38.3,-99.9,-100.00,WSW,240,12.0,-999.0,-999,0.00,,,-99.99,Home Grown,2013-04-09 01:25:00,
2013-04-09 02:30:00,38.1,-99.9,-100.00,WSW,240,11.0,-999.0,-999,0.00,,,-99.99,Home Grown,2013-04-09 01:30:00,
2013-04-09 02:35:00,37.9,-99.9,-100.00,WSW,240,11.0,-999.0,-999,0.00,,,-99.99,Home Grown,2013-04-09 01:35:00,
2013-04-09 02:40:00,37.8,-99.9,-100.00,WSW,240,10.0,-999.0,-999,0.00,,,-99.99,Home Grown,2013-04-09 01:40:00,
2013-04-09 02:45:00,37.8,-99.9,-100.00,WSW,240,11.0,-999.0,-999,0.00,,,-99.99,Home Grown,2013-04-09 01:45:00,
2013-04-09 02:50:00,37.6,-99.9,-100.00,WSW,240,10.0,-999.0,-999,0.00,,,-99.99,Home Grown,2013-04-09 01:50:00,
2013-04-09 03:00:00,37.2,-99.9,-100.00,WSW,240,10.0,-999.0,-999,0.00,,,-99.99,Home Grown,2013-04-09 02:00:00,
2013-04-09 03:05:00,37.2,-99.9,-100.00,WSW,240,12.0,-999.0,-999,0.00,,,-99.99,Home Grown,2013-04-09 02:05:00,
2013-04-09 03:10:00,37.2,-99.9,-100.00,WSW,240,11.0,-999.0,-999,0.00,,,-99.99,Home Grown,2013-04-09 02:10:00,
2013-04-09 03:15:00,37.0,-99.9,-100.00,WSW,240,10.0,-999.0,-999,0.00,,,-99.99,Home Grown,2013-04-09 02:15:00,
2013-04-09 03:25:00,36.7,-99.9,-100.00,WSW,240,10.0,-999.0,-999,0.00,,,-99.99,Home Grown,2013-04-09 02:25:00,
2013-04-09 03:30:00,36.7,-99.9,-100.00,WSW,240,11.0,-999.0,-999,0.00,,,-99.99,Home Grown,2013-04-09 02:30:00,
2013-04-09 03:40:00,36.7,-99.9,-100.00,WSW,240,10.0,-999.0,-999,0.00,,,-99.99,Home Grown,2013-04-09 02:40:00,
2013-04-09 03:45:00,36.5,-99.9,-100.00,WSW,240,9.0,-999.0,-999,0.00,,,-99.99,Home Grown,2013-04-09 02:45:00,
2013-04-09 03:50:00,36.3,-99.9,-100.00,WSW,240,9.0,-999.0,-999,0.00,,,-99.99,Home Grown,2013-04-09 02:50:00,
2013-04-09 03:55:00,36.3,-99.9,-100.00,WSW,240,10.0,-999.0,-999,0.00,,,-99.99,Home Grown,2013-04-09 02:55:00,
2013-04-09 04:00:00,36.3,-99.9,-100.00,WSW,240,10.0,-999.0,-999,0.00,,,-99.99,Home Grown,2013-04-09 03:00:00,
2013-04-09 04:05:00,36.3,-99.9,-100.00,WSW,240,10.0,-999.0,-999,0.00,,,-99.99,Home Grown,2013-04-09 03:05:00,
2013-04-09 04:15:00,36.3,-99.9,-100.00,WSW,240,11.0,-999.0,-999,0.00,,,-99.99,Home Grown,2013-04-09 03:15:00,
2013-04-09 04:20:00,36.3,-99.9,-100.00,WSW,240,11.0,-999.0,-999,0.00,,,-99.99,Home Grown,2013-04-09 03:20:00,
2013-04-09 04:25:00,36.1,-99.9,-100.00,WSW,240,10.0,-999.0,-999,0.00,,,-99.99,Home Grown,2013-04-09 03:25:00,
2013-04-09 04:30:00,36.1,-99.9,-100.00,WSW,240,10.0,-999.0,-999,0.00,,,-99.99,Home Grown,2013-04-09 03:30:00,
2013-04-09 04:35:00,36.1,-99.9,-100.00,WSW,240,10.0,-999.0,-999,0.00,,,-99.99,Home Grown,2013-04-09 03:35:00,
2013-04-09 04:40:00,36.1,-99.9,-100.00,WSW,240,10.0,-999.0,-999,0.00,,,-99.99,Home Grown,2013-04-09 03:40:00,
2013-04-09 04:45:00,36.1,-99.9,-100.00,WSW,240,13.0,-999.0,-999,0.00,,,-99.99,Home Grown,2013-04-09 03:45:00,
2013-04-09 04:50:00,36.0,-99.9,-100.00,WSW,240,11.0,-999.0,-999,0.00,,,-99.99,Home Grown,2013-04-09 03:50:00,
2013-04-09 04:55:00,36.0,-99.9,-100.00,WSW,240,12.0,-999.0,-999,0.00,,,-99.99,Home Grown,2013-04-09 03:55:00,
2013-04-09 05:00:00,35.8,-99.9,-100.00,WSW,240,10.0,-999.0,-999,0.00,,,-99.99,Home Grown,2013-04-09 04:00:00,
2013-04-09 05:05:00,35.8,-99.9,-100.00,WSW,240,12.0,-999.0,-999,0.00,,,-99.99,Home Grown,2013-04-09 04:05:00,
2013-04-09 05:10:00,35.6,-99.9,-100.00,WSW,240,10.0,-999.0,-999,0.00,,,-99.99,Home Grown,2013-04-09 04:10:00,
2013-04-09 05:15:00,35.4,-99.9,-100.00,WSW,240,11.0,-999.0,-999,0.00,,,-99.99,Home Grown,2013-04-09 04:15:00,
2013-04-09 05:20:00,35.4,-99.9,-100.00,WSW,240,9.0,-999.0,-999,0.00,,,-99.99,Home Grown,2013-04-09 04:20:00,
2013-04-09 05:25:00,35.4,-99.9,-100.00,WSW,240,10.0,-999.0,-999,0.00,,,-99.99,Home Grown,2013-04-09 04:25:00,
2013-04-09 05:30:00,35.4,-99.9,-100.00,WSW,240,11.0,-999.0,-999,0.00,,,-99.99,Home Grown,2013-04-09 04:30:00,
2013-04-09 05:35:00,35.4,-99.9,-100.00,WSW,240,10.0,-999.0,-999,0.00,,,-99.99,Home Grown,2013-04-09 04:35:00,
2013-04-09 05:40:00,35.4,-99.9,-100.00,WSW,240,11.0,-999.0,-999,0.00,,,-99.99,Home Grown,2013-04-09 04:40:00,
2013-04-09 05:50:00,35.4,-99.9,-100.00,WSW,240,11.0,-999.0,-999,0.00,,,-99.99,Home Grown,2013-04-09 04:50:00,
2013-04-09 05:55:00,35.4,-99.9,-100.00,WSW,240,12.0,-999.0,-999,0.00,,,-99.99,Home Grown,2013-04-09 04:55:00,
2013-04-09 06:05:00,35.4,-99.9,-100.00,WSW,240,13.0,-999.0,-999,0.00,,,-99.99,Home Grown,2013-04-09 05:05:00,
2013-04-09 06:10:00,35.4,-99.9,-100.00,WSW,240,12.0,-999.0,-999,0.00,,,-99.99,Home Grown,2013-04-09 05:10:00,
2013-04-09 06:15:00,35.6,-99.9,-100.00,WSW,240,11.0,-999.0,-999,0.00,,,-99.99,Home Grown,2013-04-09 05:15:00,
2013-04-09 06:20:00,35.4,-99.9,-100.00,WSW,240,12.0,-999.0,-999,0.00,,,-99.99,Home Grown,2013-04-09 05:20:00,
2013-04-09 06:25:00,35.4,-99.9,-100.00,WSW,240,10.0,-999.0,-999,0.00,,,-99.99,Home Grown,2013-04-09 05:25:00,
2013-04-09 06:30:00,35.4,-99.9,-100.00,WSW,240,10.0,-999.0,-999,0.00,,,-99.99,Home Grown,2013-04-09 05:30:00,
2013-04-09 06:40:00,35.8,-99.9,-100.00,WSW,240,11.0,-999.0,-999,0.00,,,-99.99,Home Grown,2013-04-09 05:40:00,
2013-04-09 06:45:00,36.0,-99.9,-100.00,WSW,240,11.0,-999.0,-999,0.00,,,-99.99,Home Grown,2013-04-09 05:45:00,
2013-04-09 06:50:00,36.0,-99.9,-100.00,WSW,240,11.0,-999.0,-999,0.00,,,-99.99,Home Grown,2013-04-09 05:50:00,
2013-04-09 06:55:00,36.0,-99.9,-100.00,WSW,240,12.0,-999.0,-999,0.00,,,-99.99,Home Grown,2013-04-09 05:55:00,
2013-04-09 07:05:00,36.0,-99.9,-100.00,WSW,240,12.0,-999.0,-999,0.00,,,-99.99,Home Grown,2013-04-09 06:05:00,
2013-04-09 07:10:00,35.8,-99.9,-100.00,WSW,240,11.0,-999.0,-999,0.00,,,-99.99,Home Grown,2013-04-09 06:10:00,
2013-04-09 07:15:00,35.8,-99.9,-100.00,WSW,240,9.0,-999.0,-999,0.00,,,-99.99,Home Grown,2013-04-09 06:15:00,
2013-04-09 07:20:00,35.8,-99.9,-100.00,WSW,240,10.0,-999.0,-999,0.00,,,-99.99,Home Grown,2013-04-09 06:20:00,
2013-04-09 07:25:00,36.0,-99.9,-100.00,WSW,240,11.0,-999.0,-999,0.00,,,-99.99,Home Grown,2013-04-09 06:25:00,
2013-04-09 07:30:00,36.0,-99.9,-100.00,WSW,240,11.0,-999.0,-999,0.00,,,-99.99,Home Grown,2013-04-09 06:30:00,
2013-04-09 07:35:00,36.1,-99.9,-100.00,WSW,240,9.0,-999.0,-999,0.00,,,-99.99,Home Grown,2013-04-09 06:35:00,
2013-04-09 07:40:00,36.1,-99.9,-100.00,WSW,240,9.0,-999.0,-999,0.00,,,-99.99,Home Grown,2013-04-09 06:40:00,
2013-04-09 07:45:00,36.3,-99.9,-100.00,WSW,240,11.0,-999.0,-999,0.00,,,-99.99,Home Grown,2013-04-09 06:45:00,
2013-04-09 07:50:00,36.3,-99.9,-100.00,WSW,240,11.0,-999.0,-999,0.00,,,-99.99,Home Grown,2013-04-09 06:50:00,
2013-04-09 07:55:00,36.5,-99.9,-100.00,WSW,240,12.0,-999.0,-999,0.00,,,-99.99,Home Grown,2013-04-09 06:55:00,
2013-04-09 08:00:00,36.7,-99.9,-100.00,WSW,240,11.0,-999.0,-999,0.00,,,-99.99,Home Grown,2013-04-09 07:00:00,
2013-04-09 08:10:00,36.7,-99.9,-100.00,WSW,240,11.0,-999.0,-999,0.00,,,-99.99,Home Grown,2013-04-09 07:10:00,
2013-04-09 08:15:00,36.7,-99.9,-100.00,WSW,240,11.0,-999.0,-999,0.00,,,-99.99,Home Grown,2013-04-09 07:15:00,
2013-04-09 08:20:00,36.7,-99.9,-100.00,WSW,240,12.0,-999.0,-999,0.00,,,-99.99,Home Grown,2013-04-09 07:20:00,
2013-04-09 08:25:00,36.9,-99.9,-100.00,WSW,240,13.0,-999.0,-999,0.00,,,-99.99,Home Grown,2013-04-09 07:25:00,
2013-04-09 08:30:00,36.9,-99.9,-100.00,WSW,240,14.0,-999.0,-999,0.00,,,-99.99,Home Grown,2013-04-09 07:30:00,
2013-04-09 08:35:00,36.9,-99.9,-100.00,WSW,240,14.0,-999.0,-999,0.00,,,-99.99,Home Grown,2013-04-09 07:35:00,
2013-04-09 08:40:00,36.9,-99.9,-100.00,WSW,240,11.0,-999.0,-999,0.00,,,-99.99,Home Grown,2013-04-09 07:40:00,
2013-04-09 08:45:00,36.9,-99.9,-100.00,WSW,240,11.0,-999.0,-999,0.00,,,-99.99,Home Grown,2013-04-09 07:45:00,
2013-04-09 08:50:00,37.0,-99.9,-100.00,WSW,240,11.0,-999.0,-999,0.00,,,-99.99,Home Grown,2013-04-09 07:50:00,
2013-04-09 08:55:00,37.0,-99.9,-100.00,WSW,240,13.0,-999.0,-999,0.00,,,-99.99,Home Grown,2013-04-09 07:55:00,
2013-04-09 09:00:00,37.0,-99.9,-100.00,WSW,240,11.0,-999.0,-999,0.00,,,-99.99,Home Grown,2013-04-09 08:00:00,
2013-04-09 09:05:00,37.0,-99.9,-100.00,WSW,240,9.0,-999.0,-999,0.00,,,-99.99,Home Grown,2013-04-09 08:05:00,
2013-04-09 09:15:00,37.0,-99.9,-100.00,WSW,240,12.0,-999.0,-999,0.00,,,-99.99,Home Grown,2013-04-09 08:15:00,
2013-04-09 09:20:00,37.0,-99.9,-100.00,WSW,240,11.0,-999.0,-999,0.00,,,-99.99,Home Grown,2013-04-09 08:20:00,
2013-04-09 09:25:00,36.9,-99.9,-100.00,WSW,240,12.0,-999.0,-999,0.00,,,-99.99,Home Grown,2013-04-09 08:25:00,
2013-04-09 09:30:00,37.0,-99.9,-100.00,WSW,240,12.0,-999.0,-999,0.00,,,-99.99,Home Grown,2013-04-09 08:30:00,
2013-04-09 09:35:00,37.0,-99.9,-100.00,WSW,240,12.0,-999.0,-999,0.00,,,-99.99,Home Grown,2013-04-09 08:35:00,
2013-04-09 09:40:00,37.0,-99.9,-100.00,WSW,240,13.0,-999.0,-999,0.00,,,-99.99,Home Grown,2013-04-09 08:40:00,
2013-04-09 09:50:00,37.0,-99.9,-100.00,WSW,240,12.0,-999.0,-999,0.00,,,-99.99,Home Grown,2013-04-09 08:50:00,
2013-04-09 09:55:00,37.0,-99.9,-100.00,WSW,240,11.0,-999.0,-999,0.00,,,-99.99,Home Grown,2013-04-09 08:55:00,
2013-04-09 10:00:00,37.0,-99.9,-100.00,WSW,240,11.0,-999.0,-999,0.00,,,-99.99,Home Grown,2013-04-09 09:00:00,
2013-04-09 10:05:00,37.0,-99.9,-100.00,WSW,240,11.0,-999.0,-999,0.00,,,-99.99,Home Grown,2013-04-09 09:05:00,
2013-04-09 10:10:00,37.0,-99.9,-100.00,WSW,240,11.0,-999.0,-999,0.00,,,-99.99,Home Grown,2013-04-09 09:10:00,
2013-04-09 10:15:00,37.2,-99.9,-100.00,WSW,240,11.0,-999.0,-999,0.00,,,-99.99,Home Grown,2013-04-09 09:15:00,
2013-04-09 10:20:00,37.2,-99.9,-100.00,WSW,240,12.0,-999.0,-999,0.00,,,-99.99,Home Grown,2013-04-09 09:20:00,
2013-04-09 10:30:00,37.2,-99.9,-100.00,WSW,240,10.0,-999.0,-999,0.00,,,-99.99,Home Grown,2013-04-09 09:30:00,
2013-04-09 10:40:00,37.2,-99.9,-100.00,WSW,240,11.0,-999.0,-999,0.00,,,-99.99,Home Grown,2013-04-09 09:40:00,
2013-04-09 10:50:00,37.2,-99.9,-100.00,WSW,240,10.0,-999.0,-999,0.00,,,-99.99,Home Grown,2013-04-09 09:50:00,
2013-04-09 10:55:00,37.2,-99.9,-100.00,WSW,240,13.0,-999.0,-999,0.00,,,-99.99,Home Grown,2013-04-09 09:55:00,
2013-04-09 11:00:00,37.2,-99.9,-100.00,WSW,240,11.0,-999.0,-999,0.00,,,-99.99,Home Grown,2013-04-09 10:00:00,
2013-04-09 11:05:00,37.2,-99.9,-100.00,WSW,240,11.0,-999.0,-999,0.00,,,-99.99,Home Grown,2013-04-09 10:05:00,
2013-04-09 11:15:00,37.4,-99.9,-100.00,WSW,240,12.0,-999.0,-999,0.00,,,-99.99,Home Grown,2013-04-09 10:15:00,
2013-04-09 11:20:00,37.4,-99.9,-100.00,WSW,240,11.0,-999.0,-999,0.00,,,-99.99,Home Grown,2013-04-09 10:20:00,
2013-04-09 11:25:00,37.6,-99.9,-100.00,WSW,240,10.0,-999.0,-999,0.00,,,-99.99,Home Grown,2013-04-09 10:25:00,
2013-04-09 11:30:00,37.6,-99.9,-100.00,WSW,240,10.0,-999.0,-999,0.00,,,-99.99,Home Grown,2013-04-09 10:30:00,
2013-04-09 11:35:00,37.6,-99.9,-100.00,WSW,240,12.0,-999.0,-999,0.00,,,-99.99,Home Grown,2013-04-09 10:35:00,
2013-04-09 11:40:00,37.6,-99.9,-100.00,WSW,240,9.0,-999.0,-999,0.00,,,-99.99,Home Grown,2013-04-09 10:40:00,
2013-04-09 11:45:00,37.6,-99.9,-100.00,WSW,240,12.0,-999.0,-999,0.00,,,-99.99,Home Grown,2013-04-09 10:45:00,
2013-04-09 11:50:00,37.6,-99.9,-100.00,WSW,240,11.0,-999.0,-999,0.00,,,-99.99,Home Grown,2013-04-09 10:50:00,
2013-04-09 11:55:00,37.6,-99.9,-100.00,WSW,240,9.0,-999.0,-999,0.00,,,-99.99,Home Grown,2013-04-09 10:55:00,
2013-04-09 12:00:00,37.6,-99.9,-100.00,WSW,240,10.0,-999.0,-999,0.00,,,-99.99,Home Grown,2013-04-09 11:00:00,
2013-04-09 12:05:00,37.6,-99.9,-100.00,WSW,240,11.0,-999.0,-999,0.00,,,-99.99,Home Grown,2013-04-09 11:05:00,
2013-04-09 12:10:00,37.8,-99.9,-100.00,WSW,240,10.0,-999.0,-999,0.00,,,-99.99,Home Grown,2013-04-09 11:10:00,
2013-04-09 12:15:00,37.8,-99.9,-100.00,WSW,240,9.0,-999.0,-999,0.00,,,-99.99,Home Grown,2013-04-09 11:15:00,
2013-04-09 12:20:00,37.8,-99.9,-100.00,WSW,240,10.0,-999.0,-999,0.00,,,-99.99,Home Grown,2013-04-09 11:20:00,
2013-04-09 12:25:00,37.8,-99.9,-100.00,WSW,240,11.0,-999.0,-999,0.00,,,-99.99,Home Grown,2013-04-09 11:25:00,
2013-04-09 12:35:00,37.8,-99.9,-100.00,WSW,240,11.0,-999.0,-999,0.00,,,-99.99,Home Grown,2013-04-09 11:35:00,
2013-04-09 12:40:00,37.8,-99.9,-100.00,WSW,240,11.0,-999.0,-999,0.00,,,-99.99,Home Grown,2013-04-09 11:40:00,
2013-04-09 12:45:00,37.8,-99.9,-100.00,WSW,240,11.0,-999.0,-999,0.00,,,-99.99,Home Grown,2013-04-09 11:45:00,
2013-04-09 12:50:00,37.8,-99.9,-100.00,WSW,240,11.0,-999.0,-999,0.00,,,-99.99,Home Grown,2013-04-09 11:50:00,
2013-04-09 12:55:00,37.8,-99.9,-100.00,WSW,240,9.0,-999.0,-999,0.00,,,-99.99,Home Grown,2013-04-09 11:55:00,
2013-04-09 13:05:00,37.9,-99.9,-100.00,WSW,240,11.0,-999.0,-999,0.00,,,-99.99,Home Grown,2013-04-09 12:05:00,
2013-04-09 13:10:00,37.9,-99.9,-100.00,WSW,240,10.0,-999.0,-999,0.00,,,-99.99,Home Grown,2013-04-09 12:10:00,
2013-04-09 13:15:00,38.1,-99.9,-100.00,WSW,240,11.0,-999.0,-999,0.00,,,-99.99,Home Grown,2013-04-09 12:15:00,
2013-04-09 13:25:00,38.5,-99.9,-100.00,WSW,240,9.0,-999.0,-999,0.00,,,-99.99,Home Grown,2013-04-09 12:25:00,
2013-04-09 13:30:00,38.7,-99.9,-100.00,WSW,240,9.0,-999.0,-999,0.00,,,-99.99,Home Grown,2013-04-09 12:30:00,
2013-04-09 13:35:00,38.7,-99.9,-100.00,WSW,240,10.0,-999.0,-999,0.00,,,-99.99,Home Grown,2013-04-09 12:35:00,
2013-04-09 13:40:00,38.7,-99.9,-100.00,WSW,240,10.0,-999.0,-999,0.00,,,-99.99,Home Grown,2013-04-09 12:40:00,
2013-04-09 13:50:00,38.8,-99.9,-100.00,WSW,240,10.0,-999.0,-999,0.00,,,-99.99,Home Grown,2013-04-09 12:50:00,
2013-04-09 13:55:00,39.0,-99.9,-100.00,WSW,240,10.0,-999.0,-999,0.00,,,-99.99,Home Grown,2013-04-09 12:55:00,
2013-04-09 14:00:00,39.0,-99.9,-100.00,WSW,240,11.0,-999.0,-999,0.00,,,-99.99,Home Grown,2013-04-09 13:00:00,
2013-04-09 14:05:00,39.2,-99.9,-100.00,WSW,240,10.0,-999.0,-999,0.00,,,-99.99,Home Grown,2013-04-09 13:05:00,
2013-04-09 14:10:00,39.4,-99.9,-100.00,WSW,240,9.0,-999.0,-999,0.00,,,-99.99,Home Grown,2013-04-09 13:10:00,
2013-04-09 14:15:00,39.4,-99.9,-100.00,WSW,240,9.0,-999.0,-999,0.00,,,-99.99,Home Grown,2013-04-09 13:15:00,
2013-04-09 14:25:00,39.6,-99.9,-100.00,WSW,240,9.0,-999.0,-999,0.00,,,-99.99,Home Grown,2013-04-09 13:25:00,
2013-04-09 14:30:00,39.7,-99.9,-100.00,WSW,240,10.0,-999.0,-999,0.00,,,-99.99,Home Grown,2013-04-09 13:30:00,
2013-04-09 14:35:00,39.9,-99.9,-100.00,WSW,240,9.0,-999.0,-999,0.00,,,-99.99,Home Grown,2013-04-09 13:35:00,
2013-04-09 14:40:00,40.3,-99.9,-100.00,WSW,240,6.0,-999.0,-999,0.00,,,-99.99,Home Grown,2013-04-09 13:40:00,
2013-04-09 14:45:00,40.3,-99.9,-100.00,WSW,240,10.0,-999.0,-999,0.00,,,-99.99,Home Grown,2013-04-09 13:45:00,
2013-04-09 14:50:00,40.3,-99.9,-100.00,WSW,240,10.0,-999.0,-999,0.00,,,-99.99,Home Grown,2013-04-09 13:50:00,
2013-04-09 14:55:00,40.1,-99.9,-100.00,WSW,240,10.0,-999.0,-999,0.00,,,-99.99,Home Grown,2013-04-09 13:55:00,
2013-04-09 15:00:00,40.1,-99.9,-100.00,WSW,240,9.0,-999.0,-999,0.00,,,-99.99,Home Grown,2013-04-09 14:00:00,
2013-04-09 15:05:00,40.3,-99.9,-100.00,WSW,240,9.0,-999.0,-999,0.00,,,-99.99,Home Grown,2013-04-09 14:05:00,
2013-04-09 15:10:00,40.5,-99.9,-100.00,WSW,240,10.0,-999.0,-999,0.00,,,-99.99,Home Grown,2013-04-09 14:10:00,
2013-04-09 15:15:00,40.6,-99.9,-100.00,WSW,240,10.0,-999.0,-999,0.00,,,-99.99,Home Grown,2013-04-09 14:15:00,
2013-04-09 15:20:00,40.6,-99.9,-100.00,WSW,240,9.0,-999.0,-999,0.00,,,-99.99,Home Grown,2013-04-09 14:20:00,
2013-04-09 15:25:00,40.6,-99.9,-100.00,WSW,240,10.0,-999.0,-999,0.00,,,-99.99,Home Grown,2013-04-09 14:25:00,
2013-04-09 15:30:00,40.6,-99.9,-100.00,WSW,240,10.0,-999.0,-999,0.00,,,-99.99,Home Grown,2013-04-09 14:30:00,
2013-04-09 15:35:00,41.0,-99.9,-100.00,WSW,240,8.0,-999.0,-999,0.00,,,-99.99,Home Grown,2013-04-09 14:35:00,
2013-04-09 15:40:00,41.2,-99.9,-100.00,WSW,240,8.0,-999.0,-999,0.00,,,-99.99,Home Grown,2013-04-09 14:40:00,
2013-04-09 15:45:00,41.4,-99.9,-100.00,WSW,240,8.0,-999.0,-999,0.00,,,-99.99,Home Grown,2013-04-09 14:45:00,
2013-04-09 15:50:00,41.4,-99.9,-100.00,WSW,240,9.0,-999.0,-999,0.00,,,-99.99,Home Grown,2013-04-09 14:50:00,
2013-04-09 15:55:00,41.4,-99.9,-100.00,WSW,240,8.0,-999.0,-999,0.00,,,-99.99,Home Grown,2013-04-09 14:55:00,
2013-04-09 16:00:00,41.5,-99.9,-100.00,WSW,240,8.0,-999.0,-999,0.00,,,-99.99,Home Grown,2013-04-09 15:00:00,
2013-04-09 16:05:00,41.7,-99.9,-100.00,WSW,240,6.0,-999.0,-999,0.00,,,-99.99,Home Grown,2013-04-09 15:05:00,
2013-04-09 16:10:00,41.9,-99.9,-100.00,WSW,240,8.0,-999.0,-999,0.00,,,-99.99,Home Grown,2013-04-09 15:10:00,
2013-04-09 16:20:00,42.3,-99.9,-100.00,WSW,240,6.0,-999.0,-999,0.00,,,-99.99,Home Grown,2013-04-09 15:20:00,
2013-04-09 16:30:00,42.1,-99.9,-100.00,WSW,240,7.0,-999.0,-999,0.00,,,-99.99,Home Grown,2013-04-09 15:30:00,
2013-04-09 16:35:00,41.9,-99.9,-100.00,WSW,240,7.0,-999.0,-999,0.00,,,-99.99,Home Grown,2013-04-09 15:35:00,
2013-04-09 16:40:00,41.9,-99.9,-100.00,WSW,240,8.0,-999.0,-999,0.00,,,-99.99,Home Grown,2013-04-09 15:40:00,
2013-04-09 16:45:00,41.7,-99.9,-100.00,WSW,240,7.0,-999.0,-999,0.00,,,-99.99,Home Grown,2013-04-09 15:45:00,
2013-04-09 16:50:00,41.7,-99.9,-100.00,WSW,240,8.0,-999.0,-999,0.00,,,-99.99,Home Grown,2013-04-09 15:50:00,
2013-04-09 16:55:00,41.7,-99.9,-100.00,WSW,240,9.0,-999.0,-999,0.00,,,-99.99,Home Grown,2013-04-09 15:55:00,
2013-04-09 17:00:00,41.7,-99.9,-100.00,WSW,240,9.0,-999.0,-999,0.00,,,-99.99,Home Grown,2013-04-09 16:00:00,
2013-04-09 17:10:00,42.1,-99.9,-100.00,WSW,240,8.0,-999.0,-999,0.00,,,-99.99,Home Grown,2013-04-09 16:10:00,
2013-04-09 17:15:00,42.3,-99.9,-100.00,WSW,240,8.0,-999.0,-999,0.00,,,-99.99,Home Grown,2013-04-09 16:15:00,
2013-04-09 17:20:00,42.3,-99.9,-100.00,WSW,240,9.0,-999.0,-999,0.00,,,-99.99,Home Grown,2013-04-09 16:20:00,
2013-04-09 17:25:00,42.4,-99.9,-100.00,WSW,240,9.0,-999.0,-999,0.00,,,-99.99,Home Grown,2013-04-09 16:25:00,
2013-04-09 17:30:00,42.4,-99.9,-100.00,WSW,240,9.0,-999.0,-999,0.00,,,-99.99,Home Grown,2013-04-09 16:30:00,
2013-04-09 17:35:00,42.4,-99.9,-100.00,WSW,240,9.0,-999.0,-999,0.00,,,-99.99,Home Grown,2013-04-09 16:35:00,
2013-04-09 17:40:00,42.4,-99.9,-100.00,WSW,240,10.0,-999.0,-999,0.00,,,-99.99,Home Grown,2013-04-09 16:40:00,
2013-04-09 17:45:00,42.4,-99.9,-100.00,WSW,240,9.0,-999.0,-999,0.00,,,-99.99,Home Grown,2013-04-09 16:45:00,
2013-04-09 17:55:00,42.8,-99.9,-100.00,WSW,240,7.0,-999.0,-999,0.00,,,-99.99,Home Grown,2013-04-09 16:55:00,
2013-04-09 18:00:00,42.6,-99.9,-100.00,WSW,240,8.0,-999.0,-999,0.00,,,-99.99,Home Grown,2013-04-09 17:00:00,
2013-04-09 18:10:00,42.6,-99.9,-100.00,WSW,240,7.0,-999.0,-999,0.00,,,-99.99,Home Grown,2013-04-09 17:10:00,
2013-04-09 18:15:00,42.6,-99.9,-100.00,WSW,240,7.0,-999.0,-999,0.00,,,-99.99,Home Grown,2013-04-09 17:15:00,
2013-04-09 18:20:00,43.0,-99.9,-100.00,WSW,240,8.0,-999.0,-999,0.00,,,-99.99,Home Grown,2013-04-09 17:20:00,
2013-04-09 18:25:00,42.8,-99.9,-100.00,WSW,240,9.0,-999.0,-999,0.00,,,-99.99,Home Grown,2013-04-09 17:25:00,
2013-04-09 18:30:00,43.0,-99.9,-100.00,WSW,240,7.0,-999.0,-999,0.00,,,-99.99,Home Grown,2013-04-09 17:30:00,
2013-04-09 18:35:00,43.0,-99.9,-100.00,WSW,240,8.0,-999.0,-999,0.00,,,-99.99,Home Grown,2013-04-09 17:35:00,
2013-04-09 18:40:00,43.0,-99.9,-100.00,WSW,240,7.0,-999.0,-999,0.00,,,-99.99,Home Grown,2013-04-09 17:40:00,
2013-04-09 18:50:00,42.4,-99.9,-100.00,WSW,240,7.0,-999.0,-999,0.00,,,-99.99,Home Grown,2013-04-09 17:50:00,
2013-04-09 19:00:00,42.4,-99.9,-100.00,WSW,240,7.0,-999.0,-999,0.00,,,-99.99,Home Grown,2013-04-09 18:00:00,
2013-04-09 19:05:00,42.4,-99.9,-100.00,WSW,240,6.0,-999.0,-999,0.00,,,-99.99,Home Grown,2013-04-09 18:05:00,
2013-04-09 19:10:00,42.4,-99.9,-100.00,WSW,240,6.0,-999.0,-999,0.00,,,-99.99,Home Grown,2013-04-09 18:10:00,
2013-04-09 19:15:00,42.3,-99.9,-100.00,WSW,240,6.0,-999.0,-999,0.00,,,-99.99,Home Grown,2013-04-09 18:15:00,
2013-04-09 19:20:00,42.3,-99.9,-100.00,WSW,240,7.0,-999.0,-999,0.00,,,-99.99,Home Grown,2013-04-09 18:20:00,
2013-04-09 19:30:00,42.1,-99.9,-100.00,WSW,240,6.0,-999.0,-999,0.00,,,-99.99,Home Grown,2013-04-09 18:30:00,
2013-04-09 19:35:00,41.7,-99.9,-100.00,WSW,240,6.0,-999.0,-999,0.00,,,-99.99,Home Grown,2013-04-09 18:35:00,
2013-04-09 19:40:00,41.5,-99.9,-100.00,WSW,240,6.0,-999.0,-999,0.00,,,-99.99,Home Grown,2013-04-09 18:40:00,
2013-04-09 19:45:00,41.4,-99.9,-100.00,WSW,240,6.0,-999.0,-999,0.00,,,-99.99,Home Grown,2013-04-09 18:45:00,
2013-04-09 19:55:00,41.0,-99.9,-100.00,WSW,240,5.0,-999.0,-999,0.00,,,-99.99,Home Grown,2013-04-09 18:55:00,
2013-04-09 20:00:00,40.8,-99.9,-100.00,WSW,240,5.0,-999.0,-999,0.00,,,-99.99,Home Grown,2013-04-09 19:00:00,
2013-04-09 20:05:00,40.6,-99.9,-100.00,WSW,240,5.0,-999.0,-999,0.00,,,-99.99,Home Grown,2013-04-09 19:05:00,
2013-04-09 20:15:00,40.3,-99.9,-100.00,WSW,240,5.0,-999.0,-999,0.00,,,-99.99,Home Grown,2013-04-09 19:15:00,
2013-04-09 20:20:00,39.9,-99.9,-100.00,WSW,240,4.0,-999.0,-999,0.00,,,-99.99,Home Grown,2013-04-09 19:20:00,
2013-04-09 20:25:00,39.9,-99.9,-100.00,WSW,240,4.0,-999.0,-999,0.00,,,-99.99,Home Grown,2013-04-09 19:25:00,
2013-04-09 20:30:00,39.6,-99.9,-100.00,WSW,240,4.0,-999.0,-999,0.00,,,-99.99,Home Grown,2013-04-09 19:30:00,
2013-04-09 20:35:00,39.6,-99.9,-100.00,WSW,240,4.0,-999.0,-999,0.00,,,-99.99,Home Grown,2013-04-09 19:35:00,
2013-04-09 20:40:00,39.4,-99.9,-100.00,WSW,240,4.0,-999.0,-999,0.00,,,-99.99,Home Grown,2013-04-09 19:40:00,
2013-04-09 20:50:00,39.2,-99.9,-100.00,WSW,240,5.0,-999.0,-999,0.00,,,-99.99,Home Grown,2013-04-09 19:50:00,
2013-04-09 20:55:00,39.0,-99.9,-100.00,WSW,240,4.0,-999.0,-999,0.00,,,-99.99,Home Grown,2013-04-09 19:55:00,
2013-04-09 21:00:00,39.0,-99.9,-100.00,WSW,240,5.0,-999.0,-999,0.00,,,-99.99,Home Grown,2013-04-09 20:00:00,
2013-04-09 21:05:00,38.8,-99.9,-100.00,WSW,240,4.0,-999.0,-999,0.00,,,-99.99,Home Grown,2013-04-09 20:05:00,
2013-04-09 21:10:00,38.8,-99.9,-100.00,WSW,240,4.0,-999.0,-999,0.00,,,-99.99,Home Grown,2013-04-09 20:10:00,
2013-04-09 21:20:00,38.7,-99.9,-100.00,WSW,240,4.0,-999.0,-999,0.00,,,-99.99,Home Grown,2013-04-09 20:20:00,
2013-04-09 21:25:00,38.5,-99.9,-100.00,WSW,240,4.0,-999.0,-999,0.00,,,-99.99,Home Grown,2013-04-09 20:25:00,
2013-04-09 21:30:00,38.5,-99.9,-100.00,WSW,240,4.0,-999.0,-999,0.00,,,-99.99,Home Grown,2013-04-09 20:30:00,
2013-04-09 21:35:00,38.3,-99.9,-100.00,WSW,240,4.0,-999.0,-999,0.00,,,-99.99,Home Grown,2013-04-09 20:35:00,
2013-04-09 21:45:00,38.1,-99.9,-100.00,WSW,240,4.0,-999.0,-999,0.00,,,-99.99,Home Grown,2013-04-09 20:45:00,
2013-04-09 21:50:00,38.1,-99.9,-100.00,WSW,240,4.0,-999.0,-999,0.00,,,-99.99,Home Grown,2013-04-09 20:50:00,
2013-04-09 21:55:00,37.9,-99.9,-100.00,WSW,240,4.0,-999.0,-999,0.00,,,-99.99,Home Grown,2013-04-09 20:55:00,
2013-04-09 22:00:00,37.9,-99.9,-100.00,WSW,240,3.0,-999.0,-999,0.00,,,-99.99,Home Grown,2013-04-09 21:00:00,
2013-04-09 22:05:00,37.8,-99.9,-100.00,WSW,240,3.0,-999.0,-999,0.00,,,-99.99,Home Grown,2013-04-09 21:05:00,
2013-04-09 22:10:00,37.8,-99.9,-100.00,WSW,240,3.0,-999.0,-999,0.00,,,-99.99,Home Grown,2013-04-09 21:10:00,
2013-04-09 22:20:00,37.8,-99.9,-100.00,WSW,240,3.0,-999.0,-999,0.00,,,-99.99,Home Grown,2013-04-09 21:20:00,
2013-04-09 22:30:00,37.4,-99.9,-100.00,WSW,240,3.0,-999.0,-999,0.00,,,-99.99,Home Grown,2013-04-09 21:30:00,
2013-04-09 22:35:00,37.2,-99.9,-100.00,WSW,240,3.0,-999.0,-999,0.00,,,-99.99,Home Grown,2013-04-09 21:35:00,
2013-04-09 22:40:00,37.2,-99.9,-100.00,WSW,240,3.0,-999.0,-999,0.00,,,-99.99,Home Grown,2013-04-09 21:40:00,
2013-04-09 22:45:00,37.2,-99.9,-100.00,WSW,240,3.0,-999.0,-999,0.00,,,-99.99,Home Grown,2013-04-09 21:45:00,
2013-04-09 22:50:00,37.2,-99.9,-100.00,WSW,240,4.0,-999.0,-999,0.00,,,-99.99,Home Grown,2013-04-09 21:50:00,
2013-04-09 23:00:00,37.0,-99.9,-100.00,WSW,240,4.0,-999.0,-999,0.00,,,-99.99,Home Grown,2013-04-09 22:00:00,
2013-04-09 23:05:00,37.0,-99.9,-100.00,WSW,240,4.0,-999.0,-999,0.00,,,-99.99,Home Grown,2013-04-09 22:05:00,
2013-04-09 23:10:00,37.0,-99.9,-100.00,WSW,240,4.0,-999.0,-999,0.00,,,-99.99,Home Grown,2013-04-09 22:10:00,
2013-04-09 23:15:00,37.0,-99.9,-100.00,WSW,240,4.0,-999.0,-999,0.00,,,-99.99,Home Grown,2013-04-09 22:15:00,
2013-04-09 23:20:00,37.0,-99.9,-100.00,WSW,240,4.0,-999.0,-999,0.00,,,-99.99,Home Grown,2013-04-09 22:20:00,
2013-04-09 23:30:00,37.0,-99.9,-100.00,WSW,240,4.0,-999.0,-999,0.00,,,-99.99,Home Grown,2013-04-09 22:30:00,
2013-04-09 23:35:00,37.0,-99.9,-100.00,WSW,240,4.0,-999.0,-999,0.00,,,-99.99,Home Grown,2013-04-09 22:35:00,
2013-04-09 23:40:00,37.0,-99.9,-100.00,WSW,240,4.0,-999.0,-999,0.00,,,-99.99,Home Grown,2013-04-09 22:40:00,
2013-04-09 23:45:00,37.0,-99.9,-100.00,WSW,240,4.0,-999.0,-999,0.00,,,-99.99,Home Grown,2013-04-09 22:45:00,
2013-04-09 23:55:00,37.0,-99.9,-100.00,WSW,240,4.0,-999.0,-999,0.00,,,-99.99,Home Grown,2013-04-09 22:55:00,